Volver al catálogo

STARLINK-34503

ActivoComunicacionesVLEO
NORAD 64420·PAYLOAD·🇺🇸 United States

Lanzado Jun 17, 2025 desde Vandenberg Space Force Base

Loading…

Próximos Pases (próximas 24 horas)

TLE

ActualizadoSource: CelesTrak SupGP

Época: Sep 14, 2026, 20:45 UTC

1 64420C 25129J   26257.86506944 -.00022727  00000+0 -79093-3 0  2578
2 64420  69.9996 315.7753 0003442 269.8666 197.2733 15.29576056    12

Sigue STARLINK-34503 en tiempo real con AllMySat

Download on the App Store